Location: ??????????
(42.1626°N, 44.1160°E)
Time: 10:34:49
(UTC+00:00)

ATLAS CENTAUR R/B - Pass Details

Date: 03 March 2021
Orbit: 475 x 670 km, 64.7° (Epoch: 30 March)

Event Time Altitude Azimuth Distance (km) Brightness Sun altitude
Rises 16:42:39 0° 233° (SW) 2,522 5.3 -20.5°
Reaches altitude 10° 16:44:55 10° 242° (WSW) 1,641 4.4 -20.9°
Maximum altitude 16:48:16 35° 310° (NW) 793 2.6 -21.5°
Enters shadow 16:50:49 15° 10° (N) 1,353 3.3 -22.0°
